| time (UTC) | temp F | wind direction | speed knots | gust knots | rain 1hr in | rain 24hr in | rain mn in | humidity % | barometer mb |
| 20260508135452 | 55 | 290 | 3.5 | 6.1 | 0.00 | 0.00 | 0.00 | 60 | 1012.9 |
| 20260508134948 | 55 | 5 | 0.9 | 6.1 | 0.00 | 0.00 | 0.00 | 60 | 1012.9 |
| 20260508134445 | 55 | 247 | 4.3 | 5.2 | 0.00 | 0.00 | 0.00 | 59 | 1012.7 |
| 20260508133941 | 54 | 192 | 4.3 | 7.0 | 0.00 | 0.00 | 0.00 | 58 | 1012.7 |
| 20260508133439 | 54 | 305 | 2.6 | 5.2 | 0.00 | 0.00 | 0.00 | 60 | 1013.1 |
| 20260508132936 | 55 | 42 | 1.7 | 8.7 | 0.00 | 0.00 | 0.00 | 59 | 1012.9 |
| 20260508132434 | 55 | 204 | 1.7 | 5.2 | 0.00 | 0.00 | 0.00 | 59 | 1012.5 |
| 20260508131930 | 54 | 252 | 2.6 | 6.1 | 0.00 | 0.00 | 0.00 | 59 | 1012.5 |
| 20260508131426 | 53 | 114 | 2.6 | 4.3 | 0.00 | 0.00 | 0.00 | 61 | 1012.5 |
| 20260508130923 | 53 | 41 | 1.7 | 5.2 | 0.00 | 0.00 | 0.00 | 62 | 1012.7 |
| 20260508130420 | 53 | 226 | 1.7 | 7.0 | 0.00 | 0.00 | 0.00 | 64 | 1012.7 |
| 20260508125916 | 52 | 308 | 0.9 | 2.6 | 0.00 | 0.00 | 0.00 | 64 | 1012.7 |
| 20260508125412 | 51 | 297 | 1.7 | 4.3 | 0.00 | 0.00 | 0.00 | 66 | 1012.7 |
| 20260508124910 | 51 | 62 | 1.7 | 2.6 | 0.00 | 0.00 | 0.00 | 64 | 1012.7 |
| 20260508124407 | 51 | 212 | 1.7 | 2.6 | 0.00 | 0.00 | 0.00 | 65 | 1012.5 |
| 20260508123905 | 51 | 123 | 2.6 | 5.2 | 0.00 | 0.00 | 0.00 | 63 | 1012.5 |
| 20260508123403 | 51 | 292 | 1.7 | 5.2 | 0.00 | 0.00 | 0.00 | 63 | 1012.6 |
| 20260508122859 | 51 | 334 | 0.0 | 5.2 | 0.00 | 0.00 | 0.00 | 66 | 1012.4 |
| 20260508122356 | 50 | 270 | 0.9 | 1.7 | 0.00 | 0.00 | 0.00 | 66 | 1012.7 |
| 20260508121853 | 50 | 1 | 1.7 | 5.2 | 0.00 | 0.00 | 0.00 | 64 | 1012.5 |
| 20260508121352 | 51 | 116 | 2.6 | 5.2 | 0.00 | 0.00 | 0.00 | 64 | 1012.7 |
| 20260508120849 | 50 | 183 | 2.6 | 6.1 | 0.00 | 0.00 | 0.00 | 65 | 1012.5 |
| 20260508120347 | 50 | 311 | 0.9 | 1.7 | 0.00 | 0.00 | 0.00 | 67 | 1012.5 |
| 20260508115844 | 50 | 256 | 3.5 | 5.2 | 0.00 | 0.00 | 0.00 | 67 | 1012.6 |
| 20260508115341 | 50 | 74 | 0.9 | 2.6 | 0.00 | 0.00 | 0.00 | 66 | 1012.5 |
| 20260508114838 | 49 | 346 | 0.9 | 2.6 | 0.00 | 0.00 | 0.00 | 68 | 1012.7 |
| 20260508114335 | 48 | 18 | 0.9 | 2.6 | 0.00 | 0.00 | 0.00 | 68 | 1012.5 |
| 20260508113831 | 48 | 350 | 0.9 | 7.0 | 0.00 | 0.00 | 0.00 | 69 | 1012.4 |
| 20260508113330 | 48 | 346 | 0.9 | 2.6 | 0.00 | 0.00 | 0.00 | 69 | 1012.6 |
| 20260508112826 | 47 | 103 | 0.9 | 1.7 | 0.00 | 0.00 | 0.00 | 71 | 1012.4 |
| 20260508112323 | 45 | 322 | 0.0 | 0.9 | 0.00 | 0.00 | 0.00 | 75 | 1012.5 |
| 20260508111819 | 45 | 354 | 0.0 | 1.7 | 0.00 | 0.00 | 0.00 | 76 | 1012.3 |
| 20260508111317 | 45 | 327 | 0.0 | 0.9 | 0.00 | 0.00 | 0.00 | 76 | 1012.3 |
| 20260508110814 | 44 | 349 | 0.0 | 0.9 | 0.00 | 0.00 | 0.00 | 77 | 1012.3 |
| 20260508110311 | 44 | 350 | 0.0 | 0.0 | 0.00 | 0.00 | 0.00 | 77 | 1012.3 |
| 20260508105811 | 44 | 349 | 0.0 | 0.0 | 0.00 | 0.00 | 0.00 | 78 | 1012.1 |
| 20260508105308 | 44 | 354 | 0.0 | 0.9 | 0.00 | 0.00 | 0.00 | 78 | 1012.1 |
| 20260508104805 | 43 | 351 | 0.0 | 0.9 | 0.00 | 0.00 | 0.00 | 79 | 1012.0 |
| 20260508104302 | 42 | 336 | 0.0 | 0.0 | 0.00 | 0.00 | 0.00 | 81 | 1012.2 |
| 20260508103759 | 42 | 353 | 0.0 | 0.0 | 0.00 | 0.00 | 0.00 | 80 | 1011.9 |
| 20260508103256 | 42 | 347 | 0.0 | 0.0 | 0.00 | 0.00 | 0.00 | 80 | 1012.0 |
| 20260508102753 | 42 | 349 | 0.0 | 1.7 | 0.00 | 0.00 | 0.00 | 80 | 1012.1 |
| 20260508102251 | 42 | 353 | 0.0 | 1.7 | 0.00 | 0.00 | 0.00 | 81 | 1011.7 |
| 20260508101748 | 42 | 338 | 0.9 | 0.9 | 0.00 | 0.00 | 0.00 | 81 | 1011.8 |
| 20260508101246 | 42 | 346 | 0.0 | 0.9 | 0.00 | 0.00 | 0.00 | 81 | 1011.8 |
| 20260508100743 | 43 | 346 | 0.0 | 0.9 | 0.00 | 0.00 | 0.00 | 80 | 1011.7 |
| 20260508100241 | 42 | 350 | 0.0 | 0.9 | 0.00 | 0.00 | 0.00 | 80 | 1011.7 |
| 20260508095737 | 42 | 331 | 0.0 | 0.9 | 0.00 | 0.00 | 0.00 | 81 | 1011.8 |
| 20260508095235 | 42 | 339 | 0.9 | 0.9 | 0.00 | 0.00 | 0.00 | 81 | 1012.0 |
| 20260508094731 | 42 | 345 | 0.0 | 1.7 | 0.00 | 0.00 | 0.00 | 81 | 1011.9 |
| 20260508094228 | 42 | 344 | 0.9 | 1.7 | 0.00 | 0.00 | 0.00 | 82 | 1011.9 |
| 20260508093726 | 42 | 350 | 0.0 | 0.9 | 0.00 | 0.00 | 0.00 | 82 | 1011.8 |
| 20260508093223 | 42 | 333 | 0.0 | 0.9 | 0.00 | 0.00 | 0.00 | 82 | 1012.0 |
| 20260508092720 | 42 | 347 | 0.0 | 0.9 | 0.00 | 0.00 | 0.00 | 82 | 1012.1 |
| 20260508092218 | 42 | 311 | 0.9 | 0.9 | 0.00 | 0.00 | 0.00 | 81 | 1011.7 |
| 20260508091716 | 43 | 344 | 0.0 | 0.0 | 0.00 | 0.00 | 0.00 | 80 | 1011.9 |
| 20260508091212 | 43 | 350 | 0.0 | 0.9 | 0.00 | 0.00 | 0.00 | 79 | 1011.9 |
| 20260508090710 | 43 | 350 | 0.0 | 0.9 | 0.00 | 0.00 | 0.00 | 80 | 1012.1 |
| 20260508090208 | 43 | 344 | 0.0 | 0.9 | 0.00 | 0.00 | 0.00 | 79 | 1012.1 |
| 20260508085703 | 43 | 342 | 0.0 | 0.9 | 0.00 | 0.00 | 0.00 | 80 | 1012.1 |
| 20260508085201 | 43 | 345 | 0.0 | 0.0 | 0.00 | 0.00 | 0.00 | 79 | 1012.0 |
| 20260508084657 | 43 | 325 | 0.9 | 0.9 | 0.00 | 0.00 | 0.00 | 79 | 1012.1 |
| 20260508084154 | 44 | 347 | 0.0 | 0.9 | 0.00 | 0.00 | 0.00 | 78 | 1012.1 |
| 20260508083651 | 44 | 339 | 0.0 | 0.9 | 0.00 | 0.00 | 0.00 | 78 | 1012.0 |
| 20260508083149 | 44 | 347 | 0.0 | 0.0 | 0.00 | 0.00 | 0.00 | 77 | 1012.0 |
| 20260508082644 | 44 | 350 | 0.0 | 0.9 | 0.00 | 0.00 | 0.00 | 76 | 1012.0 |
| 20260508082142 | 45 | 322 | 0.0 | 0.9 | 0.00 | 0.00 | 0.00 | 76 | 1012.0 |
| 20260508081639 | 45 | 327 | 0.9 | 1.7 | 0.00 | 0.00 | 0.00 | 75 | 1012.0 |
| 20260508081135 | 45 | 341 | 0.9 | 2.6 | 0.00 | 0.00 | 0.00 | 75 | 1011.9 |
| 20260508080633 | 45 | 249 | 1.7 | 2.6 | 0.00 | 0.00 | 0.00 | 74 | 1012.0 |
| 20260508080131 | 46 | 311 | 0.9 | 1.7 | 0.00 | 0.00 | 0.00 | 76 | 1012.0 |
| 20260508075626 | 46 | 335 | 0.9 | 0.9 | 0.00 | 0.00 | 0.00 | 76 | 1011.8 |
| 20260508075124 | 46 | 333 | 0.9 | 1.7 | 0.00 | 0.00 | 0.00 | 76 | 1011.9 |
| 20260508074622 | 46 | 0 | 0.9 | 1.7 | 0.00 | 0.00 | 0.00 | 74 | 1011.9 |
| 20260508074118 | 46 | 347 | 0.0 | 0.0 | 0.00 | 0.00 | 0.00 | 76 | 1012.1 |
| 20260508073616 | 47 | 336 | 0.0 | 0.0 | 0.00 | 0.00 | 0.00 | 74 | 1012.3 |
| 20260508073114 | 47 | 341 | 0.0 | 0.0 | 0.00 | 0.00 | 0.00 | 74 | 1012.1 |
| 20260508072608 | 47 | 352 | 0.0 | 0.0 | 0.00 | 0.00 | 0.00 | 74 | 1012.3 |
| 20260508072106 | 47 | 349 | 0.0 | 0.0 | 0.00 | 0.00 | 0.00 | 73 | 1012.2 |
| 20260508071604 | 47 | 325 | 0.9 | 1.7 | 0.00 | 0.00 | 0.00 | 71 | 1012.5 |
| 20260508071102 | 47 | 351 | 0.0 | 0.0 | 0.00 | 0.00 | 0.00 | 78 | 1012.4 |
| 20260508070559 | 46 | 6 | 0.0 | 0.9 | 0.00 | 0.00 | 0.00 | 76 | 1012.6 |
| 20260508070057 | 46 | 347 | 0.0 | 0.9 | 0.00 | 0.00 | 0.00 | 77 | 1012.6 |
| 20260508065554 | 46 | 351 | 0.0 | 1.7 | 0.00 | 0.00 | 0.00 | 81 | 1012.7 |
| 20260508065053 | 46 | 349 | 0.0 | 0.0 | 0.00 | 0.00 | 0.00 | 84 | 1012.6 |
| 20260508064550 | 47 | 354 | 0.0 | 0.0 | 0.00 | 0.00 | 0.00 | 82 | 1012.6 |
| 20260508064047 | 47 | 357 | 0.0 | 0.0 | 0.00 | 0.00 | 0.00 | 78 | 1012.6 |
| 20260508063544 | 48 | 0 | 0.0 | 0.0 | 0.00 | 0.00 | 0.00 | 76 | 1012.5 |
| 20260508063043 | 47 | 350 | 0.0 | 0.9 | 0.00 | 0.00 | 0.00 | 69 | 1012.6 |
| 20260508062540 | 47 | 344 | 0.0 | 0.9 | 0.00 | 0.00 | 0.00 | 71 | 1012.8 |
| 20260508062036 | 47 | 345 | 0.0 | 0.9 | 0.00 | 0.00 | 0.00 | 72 | 1012.5 |
| 20260508061534 | 46 | 350 | 0.0 | 0.9 | 0.00 | 0.00 | 0.00 | 75 | 1012.5 |
| 20260508061031 | 46 | 346 | 0.0 | 0.0 | 0.00 | 0.00 | 0.00 | 74 | 1012.3 |
| 20260508060528 | 45 | 337 | 0.0 | 0.9 | 0.00 | 0.00 | 0.00 | 78 | 1012.3 |
| 20260508060026 | 45 | 352 | 0.0 | 0.0 | 0.00 | 0.00 | 0.00 | 81 | 1012.1 |
| 20260508055521 | 44 | 357 | 0.0 | 0.9 | 0.00 | 0.00 | 0.00 | 82 | 1012.1 |
| 20260508055018 | 44 | 356 | 0.0 | 0.0 | 0.00 | 0.00 | 0.00 | 85 | 1012.2 |
| 20260508054514 | 43 | 354 | 0.0 | 0.0 | 0.00 | 0.00 | 0.00 | 88 | 1012.2 |
| 20260508054012 | 43 | 356 | 0.0 | 0.0 | 0.00 | 0.00 | 0.00 | 89 | 1012.4 |
| 20260508053508 | 43 | 351 | 0.0 | 0.0 | 0.00 | 0.00 | 0.00 | 90 | 1012.4 |
| 20260508053007 | 43 | 354 | 0.0 | 0.0 | 0.00 | 0.00 | 0.00 | 90 | 1012.5 |
| 20260508052503 | 43 | 355 | 0.0 | 0.0 | 0.00 | 0.00 | 0.00 | 90 | 1012.1 |
| 20260508052000 | 43 | 356 | 0.0 | 0.0 | 0.00 | 0.00 | 0.00 | 90 | 1012.2 |
| 20260508051456 | 43 | 356 | 0.0 | 0.0 | 0.00 | 0.00 | 0.00 | 90 | 1012.4 |
| 20260508050952 | 43 | 359 | 0.0 | 0.0 | 0.00 | 0.00 | 0.00 | 90 | 1012.4 |
| 20260508050448 | 43 | 1 | 0.0 | 0.0 | 0.00 | 0.00 | 0.00 | 91 | 1012.5 |
| 20260508045945 | 43 | 357 | 0.0 | 0.0 | 0.00 | 0.00 | 0.00 | 91 | 1012.5 |
| 20260508045442 | 42 | 356 | 0.0 | 0.0 | 0.00 | 0.00 | 0.00 | 91 | 1012.7 |
| 20260508044939 | 42 | 354 | 0.0 | 0.0 | 0.00 | 0.00 | 0.00 | 91 | 1012.6 |
| 20260508044437 | 42 | 354 | 0.0 | 0.0 | 0.00 | 0.00 | 0.00 | 91 | 1012.8 |
| 20260508043931 | 42 | 351 | 0.0 | 0.0 | 0.00 | 0.00 | 0.00 | 91 | 1012.6 |
| 20260508043430 | 41 | 349 | 0.0 | 0.0 | 0.00 | 0.00 | 0.00 | 91 | 1012.5 |
| 20260508042925 | 41 | 349 | 0.0 | 0.0 | 0.00 | 0.00 | 0.00 | 91 | 1012.7 |
| 20260508042424 | 41 | 347 | 0.0 | 0.0 | 0.00 | 0.00 | 0.00 | 91 | 1012.6 |
| 20260508041920 | 41 | 351 | 0.0 | 0.0 | 0.00 | 0.00 | 0.00 | 90 | 1012.5 |
| 20260508041417 | 41 | 351 | 0.0 | 0.0 | 0.00 | 0.00 | 0.00 | 90 | 1012.5 |
| 20260508040914 | 41 | 351 | 0.0 | 0.0 | 0.00 | 0.00 | 0.00 | 90 | 1012.7 |
| 20260508040411 | 41 | 351 | 0.0 | 0.0 | 0.00 | 0.00 | 0.00 | 89 | 1012.5 |
| 20260508035909 | 41 | 355 | 0.0 | 0.0 | 0.00 | 0.00 | 0.00 | 89 | 1012.6 |
| 20260508035405 | 42 | 357 | 0.0 | 0.0 | 0.00 | 0.00 | 0.00 | 89 | 1012.5 |
| 20260508034902 | 41 | 359 | 0.0 | 0.0 | 0.00 | 0.00 | 0.00 | 89 | 1012.5 |
| 20260508034400 | 41 | 351 | 0.0 | 0.0 | 0.00 | 0.00 | 0.00 | 88 | 1012.4 |
| 20260508033856 | 41 | 351 | 0.0 | 0.0 | 0.00 | 0.00 | 0.00 | 88 | 1012.4 |
| 20260508033354 | 41 | 351 | 0.0 | 0.0 | 0.00 | 0.00 | 0.00 | 88 | 1012.4 |
| 20260508032852 | 41 | 351 | 0.0 | 0.0 | 0.00 | 0.00 | 0.00 | 87 | 1012.5 |
| 20260508032349 | 41 | 351 | 0.0 | 0.0 | 0.00 | 0.00 | 0.00 | 87 | 1012.5 |
| 20260508031845 | 41 | 347 | 0.0 | 0.0 | 0.00 | 0.00 | 0.00 | 87 | 1012.5 |
| 20260508031342 | 41 | 347 | 0.0 | 0.0 | 0.00 | 0.00 | 0.00 | 87 | 1012.5 |
| 20260508030838 | 41 | 351 | 0.0 | 0.0 | 0.00 | 0.00 | 0.00 | 86 | 1012.5 |
| 20260508030336 | 41 | 351 | 0.0 | 0.0 | 0.00 | 0.00 | 0.00 | 85 | 1012.5 |
| 20260508025832 | 41 | 351 | 0.0 | 0.0 | 0.00 | 0.00 | 0.00 | 85 | 1012.6 |
| 20260508025329 | 41 | 351 | 0.0 | 0.0 | 0.00 | 0.00 | 0.00 | 84 | 1012.4 |
| 20260508024826 | 41 | 354 | 0.0 | 0.0 | 0.00 | 0.00 | 0.00 | 83 | 1012.6 |
| 20260508024323 | 42 | 355 | 0.0 | 0.0 | 0.00 | 0.00 | 0.00 | 83 | 1012.6 |
| 20260508023820 | 42 | 355 | 0.0 | 0.0 | 0.00 | 0.00 | 0.00 | 83 | 1012.6 |
| 20260508023316 | 42 | 356 | 0.0 | 0.0 | 0.00 | 0.00 | 0.00 | 82 | 1012.3 |
| 20260508022813 | 42 | 356 | 0.0 | 0.0 | 0.00 | 0.00 | 0.00 | 81 | 1012.3 |
| 20260508022309 | 42 | 351 | 0.0 | 0.0 | 0.00 | 0.00 | 0.00 | 81 | 1012.5 |
| 20260508021806 | 43 | 351 | 0.0 | 0.0 | 0.00 | 0.00 | 0.00 | 80 | 1012.5 |
| 20260508021302 | 43 | 351 | 0.0 | 0.0 | 0.00 | 0.00 | 0.00 | 79 | 1012.4 |
| 20260508020758 | 43 | 350 | 0.0 | 0.0 | 0.00 | 0.00 | 0.00 | 78 | 1012.5 |
| 20260508020256 | 43 | 351 | 0.0 | 0.0 | 0.00 | 0.00 | 0.00 | 77 | 1012.5 |
| 20260508015753 | 44 | 351 | 0.0 | 0.0 | 0.00 | 0.00 | 0.00 | 78 | 1012.4 |
| 20260508015250 | 44 | 351 | 0.0 | 0.0 | 0.00 | 0.00 | 0.00 | 80 | 1012.5 |
| 20260508014747 | 45 | 349 | 0.0 | 0.0 | 0.00 | 0.00 | 0.00 | 81 | 1012.5 |
| 20260508014244 | 45 | 354 | 0.0 | 0.0 | 0.00 | 0.00 | 0.00 | 78 | 1012.5 |
| 20260508013739 | 45 | 345 | 0.0 | 0.0 | 0.00 | 0.00 | 0.00 | 75 | 1012.4 |
| 20260508013236 | 45 | 344 | 0.0 | 0.0 | 0.00 | 0.00 | 0.00 | 77 | 1012.4 |
| 20260508012734 | 45 | 348 | 0.0 | 0.0 | 0.00 | 0.00 | 0.00 | 76 | 1012.3 |
| 20260508012230 | 46 | 346 | 0.0 | 0.0 | 0.00 | 0.00 | 0.00 | 74 | 1012.5 |
| 20260508011729 | 46 | 346 | 0.0 | 0.0 | 0.00 | 0.00 | 0.00 | 72 | 1012.2 |
| 20260508011226 | 46 | 346 | 0.0 | 0.0 | 0.00 | 0.00 | 0.00 | 69 | 1012.2 |
| 20260508010722 | 47 | 341 | 0.0 | 0.9 | 0.00 | 0.00 | 0.00 | 67 | 1012.1 |
| 20260508010221 | 47 | 347 | 0.0 | 0.0 | 0.00 | 0.00 | 0.00 | 66 | 1012.2 |
| 20260508005717 | 47 | 345 | 0.0 | 0.0 | 0.00 | 0.00 | 0.00 | 66 | 1011.9 |
| 20260508005214 | 48 | 348 | 0.0 | 0.0 | 0.00 | 0.00 | 0.00 | 63 | 1012.2 |
| 20260508004710 | 48 | 346 | 0.0 | 0.0 | 0.00 | 0.00 | 0.00 | 62 | 1012.2 |
| 20260508004206 | 48 | 348 | 0.0 | 0.0 | 0.00 | 0.00 | 0.00 | 62 | 1012.1 |
| 20260508003703 | 49 | 347 | 0.0 | 0.0 | 0.00 | 0.00 | 0.00 | 60 | 1012.0 |
| 20260508003200 | 49 | 346 | 0.0 | 0.0 | 0.00 | 0.00 | 0.00 | 59 | 1011.9 |
| 20260508002656 | 50 | 345 | 0.0 | 0.0 | 0.00 | 0.00 | 0.00 | 57 | 1011.8 |
| 20260508002155 | 51 | 342 | 0.0 | 0.0 | 0.00 | 0.00 | 0.00 | 54 | 1012.0 |
| 20260508001649 | 52 | 335 | 0.9 | 0.9 | 0.00 | 0.00 | 0.00 | 53 | 1011.9 |
| 20260508001145 | 52 | 338 | 0.9 | 0.9 | 0.00 | 0.00 | 0.00 | 51 | 1011.7 |
| 20260508000642 | 53 | 338 | 0.0 | 0.0 | 0.00 | 0.00 | 0.00 | 50 | 1011.8 |
| 20260508000139 | 54 | 337 | 0.0 | 0.0 | 0.00 | 0.00 | 0.00 | 48 | 1011.7 |
| 20260507235636 | 55 | 313 | 0.9 | 1.7 | 0.00 | 0.00 | 0.00 | 45 | 1011.7 |
| 20260507235133 | 55 | 337 | 0.0 | 1.7 | 0.00 | 0.00 | 0.00 | 46 | 1012.0 |
| 20260507234630 | 56 | 344 | 0.0 | 0.9 | 0.00 | 0.00 | 0.00 | 43 | 1011.5 |
| 20260507234126 | 58 | 339 | 0.0 | 1.7 | 0.00 | 0.00 | 0.00 | 41 | 1011.8 |
| 20260507233623 | 58 | 338 | 0.0 | 0.9 | 0.00 | 0.00 | 0.00 | 42 | 1011.5 |
| 20260507233122 | 57 | 334 | 0.0 | 1.7 | 0.00 | 0.00 | 0.00 | 41 | 1011.7 |
| 20260507232618 | 56 | 336 | 0.9 | 2.6 | 0.00 | 0.00 | 0.00 | 42 | 1011.7 |
| 20260507232115 | 57 | 334 | 2.6 | 6.1 | 0.00 | 0.00 | 0.00 | 43 | 1011.7 |
| 20260507231611 | 57 | 286 | 1.7 | 5.2 | 0.00 | 0.00 | 0.00 | 41 | 1011.7 |
| 20260507231109 | 57 | 270 | 1.7 | 2.6 | 0.00 | 0.00 | 0.00 | 41 | 1011.7 |
| 20260507230605 | 58 | 291 | 1.7 | 1.7 | 0.00 | 0.00 | 0.00 | 41 | 1011.5 |
| 20260507225557 | 58 | 244 | 2.6 | 6.1 | 0.00 | 0.00 | 0.00 | 39 | 1011.6 |
| 20260507225054 | 58 | 329 | 0.9 | 1.7 | 0.00 | 0.00 | 0.00 | 39 | 1011.6 |
| 20260507224549 | 57 | 325 | 0.0 | 4.3 | 0.00 | 0.00 | 0.00 | 38 | 1011.7 |
| 20260507224046 | 58 | 315 | 2.6 | 7.0 | 0.00 | 0.00 | 0.00 | 39 | 1011.6 |
| 20260507223542 | 58 | 319 | 2.6 | 5.2 | 0.00 | 0.00 | 0.00 | 38 | 1011.9 |
| 20260507223039 | 58 | 342 | 1.7 | 4.3 | 0.00 | 0.00 | 0.00 | 39 | 1011.7 |
| 20260507222536 | 57 | 312 | 1.7 | 2.6 | 0.00 | 0.00 | 0.00 | 39 | 1011.8 |
| 20260507222033 | 56 | 329 | 0.9 | 5.2 | 0.00 | 0.00 | 0.00 | 39 | 1011.7 |
| 20260507221529 | 56 | 329 | 0.9 | 2.6 | 0.00 | 0.00 | 0.00 | 41 | 1011.8 |
| 20260507221026 | 57 | 308 | 3.5 | 4.3 | 0.00 | 0.00 | 0.00 | 40 | 1011.9 |
| 20260507220523 | 59 | 305 | 1.7 | 5.2 | 0.00 | 0.00 | 0.00 | 39 | 1011.7 |
| 20260507220021 | 58 | 333 | 0.9 | 4.3 | 0.00 | 0.00 | 0.00 | 40 | 1011.7 |
| 20260507215516 | 58 | 265 | 5.2 | 8.7 | 0.00 | 0.00 | 0.00 | 39 | 1011.6 |
| 20260507215015 | 58 | 10 | 3.5 | 5.2 | 0.00 | 0.00 | 0.00 | 40 | 1011.7 |
| 20260507214512 | 58 | 324 | 2.6 | 11.3 | 0.00 | 0.00 | 0.00 | 41 | 1011.5 |
| 20260507214007 | 59 | 293 | 2.6 | 7.0 | 0.00 | 0.00 | 0.00 | 39 | 1011.6 |
| 20260507213504 | 58 | 191 | 1.7 | 4.3 | 0.00 | 0.00 | 0.00 | 40 | 1011.5 |
| 20260507213001 | 56 | 274 | 7.0 | 8.7 | 0.00 | 0.00 | 0.00 | 42 | 1011.6 |
| 20260507212456 | 55 | 312 | 2.6 | 6.1 | 0.00 | 0.00 | 0.00 | 44 | 1011.6 |
| 20260507211954 | 56 | 329 | 0.9 | 7.0 | 0.00 | 0.00 | 0.00 | 42 | 1011.6 |
| 20260507211450 | 57 | 352 | 1.7 | 7.0 | 0.00 | 0.00 | 0.00 | 41 | 1011.4 |
| 20260507210947 | 57 | 30 | 0.9 | 7.0 | 0.00 | 0.00 | 0.00 | 43 | 1011.3 |
| 20260507210444 | 56 | 346 | 2.6 | 7.8 | 0.00 | 0.00 | 0.00 | 44 | 1011.3 |
| 20260507205940 | 56 | 310 | 4.3 | 6.1 | 0.00 | 0.00 | 0.00 | 43 | 1011.3 |
| 20260507205438 | 58 | 328 | 2.6 | 5.2 | 0.00 | 0.00 | 0.00 | 41 | 1011.2 |
| 20260507204934 | 58 | 279 | 6.1 | 7.0 | 0.00 | 0.00 | 0.00 | 43 | 1011.2 |
| 20260507204430 | 57 | 345 | 0.9 | 6.1 | 0.00 | 0.00 | 0.00 | 43 | 1011.1 |
| 20260507203928 | 58 | 297 | 3.5 | 6.1 | 0.00 | 0.00 | 0.00 | 42 | 1011.1 |
| 20260507203426 | 56 | 305 | 2.6 | 7.8 | 0.00 | 0.00 | 0.00 | 42 | 1011.1 |
| 20260507202922 | 58 | 261 | 7.8 | 8.7 | 0.00 | 0.00 | 0.00 | 43 | 1011.2 |
| 20260507202419 | 57 | 275 | 2.6 | 9.6 | 0.00 | 0.00 | 0.00 | 43 | 1011.2 |
| 20260507201914 | 57 | 6 | 1.7 | 4.3 | 0.00 | 0.00 | 0.00 | 44 | 1011.1 |
| 20260507201410 | 56 | 285 | 3.5 | 6.1 | 0.00 | 0.00 | 0.00 | 45 | 1011.1 |
| 20260507200907 | 58 | 300 | 3.5 | 7.8 | 0.00 | 0.00 | 0.00 | 46 | 1011.4 |
| 20260507200402 | 59 | 298 | 3.5 | 7.8 | 0.00 | 0.00 | 0.00 | 46 | 1011.4 |
| 20260507195858 | 59 | 284 | 2.6 | 6.1 | 0.00 | 0.00 | 0.00 | 46 | 1011.1 |
| 20260507195356 | 57 | 333 | 1.7 | 5.2 | 0.00 | 0.00 | 0.00 | 46 | 1011.0 |
| 20260507194853 | 57 | 305 | 5.2 | 9.6 | 0.00 | 0.00 | 0.00 | 44 | 1011.1 |
| 20260507194349 | 58 | 325 | 0.9 | 4.3 | 0.00 | 0.00 | 0.00 | 45 | 1011.1 |
| 20260507193846 | 59 | 292 | 6.1 | 9.6 | 0.00 | 0.00 | 0.00 | 45 | 1011.4 |
| 20260507193343 | 58 | 299 | 2.6 | 7.0 | 0.00 | 0.00 | 0.00 | 43 | 1011.3 |
| 20260507192839 | 57 | 145 | 2.6 | 7.8 | 0.00 | 0.00 | 0.00 | 46 | 1011.1 |
| 20260507192336 | 57 | 280 | 1.7 | 4.3 | 0.00 | 0.00 | 0.00 | 45 | 1011.2 |
| 20260507191832 | 59 | 318 | 5.2 | 12.2 | 0.00 | 0.00 | 0.00 | 46 | 1011.5 |
| 20260507191328 | 58 | 216 | 5.2 | 7.0 | 0.00 | 0.00 | 0.00 | 45 | 1011.4 |
| 20260507190825 | 57 | 7 | 3.5 | 7.8 | 0.00 | 0.00 | 0.00 | 43 | 1011.2 |
| 20260507190324 | 58 | 229 | 6.1 | 7.8 | 0.00 | 0.00 | 0.00 | 43 | 1011.2 |
| 20260507185822 | 57 | 346 | 2.6 | 11.3 | 0.00 | 0.00 | 0.00 | 45 | 1011.6 |
| 20260507185319 | 57 | 261 | 8.7 | 11.3 | 0.00 | 0.00 | 0.00 | 44 | 1011.2 |
| 20260507184816 | 58 | 71 | 5.2 | 7.0 | 0.00 | 0.00 | 0.00 | 42 | 1011.5 |
| 20260507184314 | 58 | 235 | 0.0 | 2.6 | 0.00 | 0.00 | 0.00 | 46 | 1011.2 |
| 20260507183810 | 57 | 337 | 2.6 | 5.2 | 0.00 | 0.00 | 0.00 | 46 | 1011.3 |
| 20260507183308 | 57 | 243 | 4.3 | 6.1 | 0.00 | 0.00 | 0.00 | 45 | 1011.5 |
| 20260507182805 | 58 | 258 | 3.5 | 6.1 | 0.00 | 0.00 | 0.00 | 43 | 1011.5 |
| 20260507182300 | 56 | 165 | 2.6 | 8.7 | 0.00 | 0.00 | 0.00 | 46 | 1011.4 |
| 20260507181757 | 58 | 313 | 5.2 | 8.7 | 0.00 | 0.00 | 0.00 | 42 | 1011.4 |
| 20260507181253 | 57 | 30 | 1.7 | 4.3 | 0.00 | 0.00 | 0.00 | 45 | 1011.3 |
| 20260507180750 | 56 | 325 | 2.6 | 4.3 | 0.00 | 0.00 | 0.00 | 50 | 1011.6 |
| 20260507180247 | 56 | 300 | 1.7 | 7.8 | 0.00 | 0.00 | 0.00 | 47 | 1011.6 |
| 20260507175742 | 56 | 289 | 7.8 | 8.7 | 0.00 | 0.00 | 0.00 | 42 | 1011.6 |
| 20260507175239 | 57 | 220 | 2.6 | 7.0 | 0.00 | 0.00 | 0.00 | 45 | 1011.7 |
| 20260507174737 | 56 | 340 | 2.6 | 6.1 | 0.00 | 0.00 | 0.00 | 44 | 1011.7 |
| 20260507174235 | 56 | 287 | 1.7 | 5.2 | 0.00 | 0.00 | 0.00 | 45 | 1011.7 |
| 20260507173732 | 57 | 239 | 6.1 | 14.8 | 0.00 | 0.00 | 0.00 | 46 | 1011.8 |
| 20260507173229 | 56 | 257 | 4.3 | 7.0 | 0.00 | 0.00 | 0.00 | 42 | 1011.9 |
| 20260507172725 | 56 | 295 | 3.5 | 7.8 | 0.00 | 0.00 | 0.00 | 48 | 1012.0 |
| 20260507172223 | 56 | 358 | 1.7 | 8.7 | 0.00 | 0.00 | 0.00 | 44 | 1012.1 |
| 20260507171722 | 55 | 198 | 7.8 | 13.9 | 0.00 | 0.00 | 0.00 | 43 | 1012.2 |
| 20260507171220 | 55 | 291 | 2.6 | 8.7 | 0.00 | 0.00 | 0.00 | 46 | 1012.2 |
| 20260507170717 | 55 | 239 | 5.2 | 9.6 | 0.00 | 0.00 | 0.00 | 40 | 1012.0 |
| 20260507170214 | 55 | 281 | 6.1 | 8.7 | 0.00 | 0.00 | 0.00 | 44 | 1012.3 |
| 20260507165709 | 54 | 255 | 4.3 | 9.6 | 0.00 | 0.00 | 0.00 | 45 | 1012.1 |
| 20260507165206 | 54 | 306 | 3.5 | 8.7 | 0.00 | 0.00 | 0.00 | 47 | 1012.3 |
| 20260507164702 | 55 | 285 | 5.2 | 7.0 | 0.00 | 0.00 | 0.00 | 43 | 1012.2 |
| 20260507164159 | 55 | 243 | 3.5 | 6.1 | 0.00 | 0.00 | 0.00 | 48 | 1012.3 |
| 20260507163656 | 55 | 322 | 4.3 | 7.0 | 0.00 | 0.00 | 0.00 | 52 | 1012.4 |
| 20260507163154 | 54 | 239 | 5.2 | 9.6 | 0.00 | 0.00 | 0.00 | 48 | 1012.1 |
| 20260507162650 | 55 | 256 | 7.0 | 8.7 | 0.00 | 0.00 | 0.00 | 47 | 1012.1 |
| 20260507162146 | 55 | 108 | 1.7 | 5.2 | 0.00 | 0.00 | 0.00 | 47 | 1012.4 |
| 20260507161642 | 55 | 271 | 4.3 | 8.7 | 0.00 | 0.00 | 0.00 | 49 | 1012.2 |
| 20260507161139 | 54 | 322 | 2.6 | 7.8 | 0.00 | 0.00 | 0.00 | 49 | 1012.3 |
| 20260507160635 | 55 | 346 | 4.3 | 11.3 | 0.00 | 0.00 | 0.00 | 44 | 1012.3 |
| 20260507160132 | 55 | 238 | 4.3 | 7.0 | 0.00 | 0.00 | 0.00 | 50 | 1012.3 |
| 20260507155628 | 54 | 241 | 4.3 | 7.0 | 0.00 | 0.00 | 0.00 | 49 | 1012.2 |
| 20260507155125 | 55 | 281 | 2.6 | 8.7 | 0.00 | 0.00 | 0.00 | 46 | 1012.1 |
| 20260507154621 | 55 | 188 | 2.6 | 5.2 | 0.00 | 0.00 | 0.00 | 46 | 1012.3 |
| 20260507154119 | 54 | 324 | 2.6 | 7.8 | 0.00 | 0.00 | 0.00 | 49 | 1012.2 |
| 20260507153615 | 54 | 289 | 4.3 | 6.1 | 0.00 | 0.00 | 0.00 | 45 | 1012.1 |
| 20260507153112 | 54 | 313 | 4.3 | 7.8 | 0.00 | 0.00 | 0.00 | 46 | 1012.1 |
| 20260507152608 | 54 | 242 | 3.5 | 6.1 | 0.00 | 0.00 | 0.00 | 45 | 1012.0 |
| 20260507152104 | 53 | 9 | 2.6 | 6.1 | 0.00 | 0.00 | 0.00 | 49 | 1012.1 |
| 20260507151600 | 54 | 272 | 4.3 | 11.3 | 0.00 | 0.00 | 0.00 | 48 | 1012.1 |
| 20260507151057 | 54 | 238 | 3.5 | 5.2 | 0.00 | 0.00 | 0.00 | 49 | 1012.2 |
| 20260507150554 | 53 | 256 | 7.0 | 7.8 | 0.00 | 0.00 | 0.00 | 48 | 1012.1 |
| 20260507150051 | 53 | 250 | 3.5 | 7.0 | 0.00 | 0.00 | 0.00 | 51 | 1012.2 |
| 20260507145546 | 53 | 309 | 0.9 | 5.2 | 0.00 | 0.00 | 0.00 | 49 | 1012.2 |
| 20260507145044 | 53 | 313 | 3.5 | 7.0 | 0.00 | 0.00 | 0.00 | 50 | 1012.4 |
| 20260507144540 | 53 | 345 | 1.7 | 5.2 | 0.00 | 0.00 | 0.00 | 50 | 1012.4 |
| 20260507144038 | 53 | 238 | 4.3 | 8.7 | 0.00 | 0.00 | 0.00 | 54 | 1012.3 |
| 20260507143535 | 53 | 299 | 2.6 | 5.2 | 0.00 | 0.00 | 0.00 | 53 | 1012.1 |
| 20260507143032 | 53 | 356 | 0.9 | 5.2 | 0.00 | 0.00 | 0.00 | 56 | 1012.3 |
| 20260507142527 | 52 | 109 | 1.7 | 5.2 | 0.00 | 0.00 | 0.00 | 55 | 1012.3 |
| 20260507142025 | 52 | 250 | 4.3 | 7.0 | 0.00 | 0.00 | 0.00 | 56 | 1012.4 |
| 20260507141520 | 53 | 239 | 4.3 | 5.2 | 0.00 | 0.00 | 0.00 | 57 | 1012.4 |
| 20260507141017 | 53 | 280 | 3.5 | 5.2 | 0.00 | 0.00 | 0.00 | 57 | 1012.4 |
| 20260507140514 | 52 | 228 | 2.6 | 4.3 | 0.00 | 0.00 | 0.00 | 58 | 1012.5 |
| 20260507140012 | 51 | 313 | 1.7 | 4.3 | 0.00 | 0.00 | 0.00 | 60 | 1012.4 |